[[{"header":{"parameterUnit":"m.s-1","parameterCategory":2,"la1":30.2991,"la2":30.254,"lo1":-89.0895,"lo2":-89.0444,"dy":0.0017,"dx":0.0017,"nx":28,"ny":28,"refTime":"2025-02-28T03:00:00:Z","depth":"0","parameterNumber":2,"parameterNumberName":"U-component_of_CURRENTS"},"data":[0,0,0,0,0,0,0,0,0,0,0,0,0,0,0,0,0,0,0,0,0,0,0,0,0,0,0,0,0,0,0,0,0,0,0,0,0,0,0,0,0,0,0,0,0,0,0,0,0,0,0,0,0,0,0,0,0,0,0.2648,0.2648,0,0.2626,0.2626,0.2626,0.258,0.2579,0.2578,0.2577,0.2538,0.2538,0.2537,0,0,0,0,0,0,0,0,0,0,0,0,0,0.2656,0.2656,0.2648,0.2648,0.2648,0.2626,0.2626,0.2626,0.258,0.2579,0.2578,0.2577,0.2538,0.2538,0.2537,0,0,0,0,0,0,0,0,0,0,0,0,0,0.2644,0.2656,0.2648,0.2624,0.2621,0.2627,0.2626,0.2625,0.258,0.2579,0.2578,0.2577,0.2538,0.2538,0.2537,0.2558,0,0,0.2536,0.2535,0,0,0,0,0,0,0,0,0.2645,0.2644,0.2628,0.2626,0.2623,0.2606,0.2614,0.2602,0.258,0.2594,0.2577,0.2576,0.2561,0.2559,0.2555,0.2556,0.2554,0.2536,0.2535,0.2535,0.2535,0,0,0,0,0,0,0,0.2646,0.2644,0.2638,0.2628,0.2625,0.2616,0.2613,0.2612,0.2583,0.2593,0.259,0.259,0.2559,0.2556,0.2554,0.2554,0.2536,0.2535,0.2535,0.2535,0.2555,0.2556,0,0,0,0,0,0,0.2653,0.2645,0.2639,0.2638,0.2633,0.2617,0.2613,0.2611,0.2583,0.2578,0.2591,0.2588,0.2557,0.2554,0.2552,0.2562,0.2535,0.2535,0.2534,0.2554,0.2555,0.2556,0,0,0,0,0,0,0.2653,0.2652,0.264,0.2642,0.264,0.2618,0.2616,0.2612,0.2604,0.2582,0.2577,0.2589,0.2556,0.2553,0.2554,0.2561,0.2534,0.2534,0.2553,0.2555,0.2556,0.2591,0,0,0,0,0,0,0.2653,0.2652,0.2654,0.2643,0.264,0.2638,0.2618,0.2612,0.2607,0.2603,0.2579,0.2574,0.2555,0.2555,0.2553,0.256,0.2534,0.2552,0.2554,0.2555,0.2589,0.2593,0.2597,0,0,0,0,0,0.2653,0.2649,0.2654,0.2653,0.2643,0.2638,0.2636,0.2615,0.2609,0.2605,0.2596,0.2574,0.2563,0.2555,0.2553,0.256,0.2552,0.2553,0.2555,0.2587,0.2592,0.2597,0,0,0,0,0,0,0.2639,0.2644,0.2649,0.2643,0.2644,0.2631,0.2625,0.2622,0.2612,0.2609,0.2588,0.2583,0.2592,0.2574,0.2566,0.2571,0.2553,0.2555,0.2578,0.2583,0.2587,0.2611,0.2533,0,0,0,0,0,0.2644,0.2646,0.2651,0.2645,0.265,0.2644,0.2641,0.2633,0.2625,0.2619,0.2609,0.26,0.2601,0.2589,0.2591,0.259,0.2602,0.2593,0.2597,0.2601,0.262,0.2639,0.2647,0.2562,0.2562,0.2562,0,0,0.2633,0.2639,0.2636,0.2643,0.2643,0.2653,0.2638,0.2636,0.2647,0.2619,0.2628,0.2623,0.2609,0.2613,0.2613,0.2593,0.2633,0.2603,0.2606,0.2624,0.2642,0.265,0.2658,0.2564,0.2563,0.2563,0,0,0.2613,0.2624,0.2623,0.2634,0.2645,0.2653,0.2657,0.2658,0.266,0.2675,0.2662,0.2664,0.2658,0.2649,0.2644,0.2675,0.2667,0.2667,0.2691,0.2709,0.2717,0.2723,0.2759,0.2769,0.2653,0.2653,0.2653,0,0.2597,0.2606,0.2619,0.2629,0.2641,0.2657,0.2666,0.2679,0.2681,0.2686,0.2682,0.2693,0.268,0.2687,0.2697,0.2685,0.27,0.267,0.2716,0.2722,0.2728,0.2763,0.2773,0.2655,0.2655,0.2655,0.2654,0,0.2588,0.2599,0.26,0.2629,0.2643,0.2653,0.2683,0.2698,0.2713,0.2723,0.2745,0.2743,0.274,0.2738,0.2728,0.2758,0.2758,0.273,0.2703,0.2739,0.2774,0.2784,0.2658,0.2657,0.2657,0.2656,0,0,0.2543,0.2585,0.2586,0.2603,0.2648,0.2654,0.2691,0.2719,0.2743,0.2759,0.2785,0.2795,0.2795,0.2792,0.2778,0.2797,0.2856,0.2784,0.2784,0.2822,0.2916,0.2853,0.2858,0.2831,0.2833,0.2834,0.2927,0,0.2533,0.2549,0.258,0.2604,0.262,0.266,0.2693,0.2723,0.2759,0.2793,0.2805,0.2832,0.2814,0.282,0.2835,0.2858,0.2882,0.2835,0.2875,0.2877,0.2817,0.2867,0.2758,0.2825,0.2936,0.2938,0.2939,0,0.2522,0.2537,0.2554,0.26,0.2611,0.2632,0.2691,0.2723,0.2781,0.2812,0.284,0.286,0.2899,0.288,0.2938,0.2908,0.2923,0.294,0.2942,0.2881,0.2832,0.2805,0.2838,0.2757,0.2954,0.2953,0.2952,0,0.2491,0.2524,0.2537,0.2553,0.2607,0.2621,0.2654,0.2715,0.2749,0.2828,0.2859,0.2908,0.2936,0.2969,0.3,0.2976,0.3073,0.3031,0.2994,0.299,0.2905,0.289,0.2865,0.3081,0.3081,0.308,0.308,0,0.2481,0.2492,0.252,0.2529,0.2545,0.2595,0.263,0.2679,0.2752,0.2784,0.2857,0.289,0.2961,0.3012,0.3033,0.3051,0.3093,0.3025,0.3012,0.2914,0.2899,0.2829,0.2797,0.3084,0.3083,0.3083,0.3082,0,0.2451,0.2475,0.2484,0.2521,0.253,0.254,0.2601,0.2633,0.2713,0.2762,0.2789,0.2894,0.2956,0.3023,0.3096,0.3081,0.3024,0.3107,0.3,0.2971,0.2824,0.2798,0.2686,0.2605,0.3079,0.3078,0.3077,0,0.244,0.2439,0.2455,0.2456,0.247,0.2493,0.2515,0.26,0.2634,0.2741,0.2755,0.2854,0.2897,0.3004,0.302,0.3069,0.2977,0.2984,0.2905,0.282,0.2783,0.2672,0.2604,0.2822,0.2819,0.2816,0.2815,0,0.2409,0.2409,0.2416,0.2403,0.2414,0.2421,0.2454,0.2474,0.2566,0.262,0.2683,0.2738,0.2838,0.2843,0.2915,0.2922,0.2825,0.2934,0.2871,0.2607,0.2462,0.2375,0.2776,0.2794,0.2796,0.2797,0.2798,0.2799,0.238,0.2362,0.2356,0.2339,0.2345,0.2325,0.2306,0.2358,0.2392,0.2447,0.2554,0.2606,0.268,0.2757,0.2747,0.2665,0.2657,0.2589,0.2581,0.2489,0.2348,0.2711,0.2684,0.2685,0.2687,0.2688,0.2689,0,0.2319,0.2301,0.229,0.2249,0.2207,0.2235,0.2242,0.2219,0.2216,0.2327,0.2383,0.2426,0.2441,0.248,0.2446,0.2346,0.2243,0.228,0.2112,0.2075,0.2429,0.2353,0.2221,0.2221,0.2221,0.2222,0.2222,0.2222,0.2287,0.224,0.2218,0.2109,0.2076,0.1995,0.1973,0.1981,0.204,0.2072,0.2102,0.216,0.2248,0.2262,0.2161,0.2107,0.1933,0.1838,0.1838,0.2108,0.2136,0.2163,0.2083,0.1897,0.1896,0.139,0.1386,0.1383]},{"header":{"parameterUnit":"m.s-1","parameterCategory":2,"la1":30.2991,"la2":30.254,"lo1":-89.0895,"lo2":-89.0444,"dy":0.0017,"dx":0.0017,"nx":28,"ny":28,"refTime":"2025-02-28T03:00:00:Z","depth":"0","parameterNumber":3,"parameterNumberName":"V-component_of_CURRENTS"},"data":[0,0,0,0,0,0,0,0,0,0,0,0,0,0,0,0,0,0,0,0,0,0,0,0,0,0,0,0,0,0,0,0,0,0,0,0,0,0,0,0,0,0,0,0,0,0,0,0,0,0,0,0,0,0,0,0,0,0,-0.028,-0.0279,0,-0.0265,-0.0266,-0.0266,-0.0278,-0.0278,-0.0278,-0.0278,-0.0385,-0.0387,-0.039,0,0,0,0,0,0,0,0,0,0,0,0,0,-0.0334,-0.0333,-0.028,-0.0279,-0.0279,-0.0265,-0.0266,-0.0266,-0.0278,-0.0278,-0.0278,-0.0278,-0.0384,-0.0387,-0.039,0,0,0,0,0,0,0,0,0,0,0,0,0,-0.0318,-0.0333,-0.028,-0.028,-0.028,-0.0265,-0.0266,-0.0266,-0.0278,-0.0278,-0.0278,-0.0278,-0.0383,-0.0387,-0.0391,-0.0412,0,0,-0.0403,-0.0405,0,0,0,0,0,0,0,0,-0.0319,-0.0317,-0.0281,-0.028,-0.0279,-0.027,-0.0323,-0.0319,-0.0278,-0.0283,-0.0278,-0.0278,-0.0355,-0.0361,-0.0362,-0.0417,-0.0422,-0.0403,-0.0406,-0.0408,-0.0409,0,0,0,0,0,0,0,-0.032,-0.0317,-0.0278,-0.028,-0.0279,-0.0286,-0.0284,-0.0323,-0.0323,-0.0282,-0.0282,-0.0274,-0.0356,-0.0358,-0.0365,-0.0423,-0.0403,-0.0407,-0.041,-0.0411,-0.0493,-0.0492,0,0,0,0,0,0,-0.0312,-0.0318,-0.0279,-0.0277,-0.0295,-0.0285,-0.0283,-0.0276,-0.032,-0.0325,-0.0274,-0.0274,-0.0351,-0.036,-0.0369,-0.0377,-0.0408,-0.0412,-0.0414,-0.0493,-0.0493,-0.0492,0,0,0,0,0,0,-0.0314,-0.0309,-0.0279,-0.0294,-0.029,-0.0283,-0.0276,-0.0276,-0.0274,-0.0312,-0.032,-0.0271,-0.0351,-0.0363,-0.0398,-0.0382,-0.0413,-0.0417,-0.0493,-0.0493,-0.0492,-0.0406,0,0,0,0,0,0,-0.0315,-0.031,-0.0303,-0.0294,-0.0289,-0.0265,-0.0275,-0.0275,-0.0267,-0.0268,-0.0313,-0.0322,-0.0352,-0.0391,-0.0402,-0.0388,-0.042,-0.0494,-0.0493,-0.0493,-0.041,-0.0403,-0.0397,0,0,0,0,0,-0.0317,-0.0301,-0.0303,-0.0298,-0.028,-0.0264,-0.0263,-0.0262,-0.0267,-0.0263,-0.0293,-0.0321,-0.0395,-0.0394,-0.0407,-0.0394,-0.0494,-0.0493,-0.0493,-0.0412,-0.0404,-0.0398,0,0,0,0,0,0,-0.0311,-0.03,-0.0302,-0.0281,-0.0273,-0.0265,-0.0255,-0.0258,-0.0276,-0.0281,-0.0322,-0.0334,-0.0359,-0.0392,-0.039,-0.0417,-0.0448,-0.0449,-0.0382,-0.0375,-0.0369,-0.0348,-0.0424,0,0,0,0,0,-0.0308,-0.03,-0.0289,-0.0271,-0.0266,-0.0263,-0.0256,-0.0255,-0.0266,-0.0273,-0.0303,-0.0338,-0.0365,-0.0382,-0.0417,-0.0435,-0.0452,-0.0435,-0.0428,-0.0423,-0.0415,-0.0422,-0.0415,-0.049,-0.049,-0.049,0,0,-0.0297,-0.0291,-0.0284,-0.027,-0.0264,-0.0243,-0.026,-0.0245,-0.0231,-0.0285,-0.0287,-0.0324,-0.0368,-0.0382,-0.0396,-0.0407,-0.0411,-0.0422,-0.0417,-0.0412,-0.0421,-0.0413,-0.0407,-0.049,-0.049,-0.049,0,0,-0.026,-0.0269,-0.0244,-0.024,-0.0227,-0.0228,-0.0222,-0.0218,-0.0222,-0.0233,-0.0261,-0.0284,-0.0336,-0.0348,-0.0365,-0.035,-0.0382,-0.0365,-0.0312,-0.0319,-0.0313,-0.0307,-0.0312,-0.0307,-0.0357,-0.0356,-0.0356,0,-0.0243,-0.0215,-0.0233,-0.0209,-0.0193,-0.0217,-0.0181,-0.0191,-0.0199,-0.0196,-0.0229,-0.0273,-0.0315,-0.031,-0.0304,-0.0333,-0.0344,-0.0332,-0.0309,-0.0304,-0.03,-0.0306,-0.0302,-0.0352,-0.0353,-0.0353,-0.0353,0,-0.0187,-0.0167,-0.0153,-0.0134,-0.0124,-0.0102,-0.011,-0.0112,-0.0131,-0.0137,-0.015,-0.0204,-0.0225,-0.0241,-0.0273,-0.0255,-0.0273,-0.0301,-0.032,-0.0286,-0.0296,-0.0293,-0.0346,-0.0348,-0.0349,-0.035,0,0,-0.013,-0.0115,-0.0108,-0.0084,-0.0083,-0.0062,-0.0051,-0.0034,-0.001,-0.0055,-0.0027,-0.0085,-0.0115,-0.0135,-0.0173,-0.0182,-0.0165,-0.0223,-0.0225,-0.0215,-0.0175,-0.0176,-0.0174,-0.0186,-0.0185,-0.0185,-0.019,0,-0.0073,-0.0018,-0.0024,0.0034,0.0065,0.0042,0.0059,0.0062,0.005,0.006,0.0004,-0.0002,-0.0073,-0.0079,-0.01,-0.0147,-0.0156,-0.0161,-0.0221,-0.0223,-0.0217,-0.017,-0.0148,-0.015,-0.0188,-0.0188,-0.0187,0,-0.0008,0.002,0.0085,0.0121,0.0134,0.0161,0.0195,0.0209,0.0202,0.0188,0.0167,0.0118,0.0094,0.0023,-0.0038,-0.0036,-0.0098,-0.0143,-0.0144,-0.0173,-0.0219,-0.0194,-0.0144,-0.0244,-0.0184,-0.0184,-0.0184,0,0.0047,0.01,0.0154,0.0165,0.0196,0.0227,0.0245,0.0254,0.0282,0.0277,0.0287,0.0237,0.0218,0.0136,0.0025,-0.0002,-0.0039,-0.009,-0.0148,-0.0149,-0.0156,-0.0158,-0.0199,-0.0129,-0.0129,-0.0129,-0.0129,0,0.0109,0.0156,0.0185,0.0216,0.0285,0.0289,0.0362,0.0364,0.0391,0.0437,0.036,0.0382,0.0245,0.0194,0.0079,-0.0014,-0.0,-0.0122,-0.0143,-0.0126,-0.0125,-0.0236,-0.0307,-0.0129,-0.0129,-0.0129,-0.0129,0,0.0163,0.0177,0.0245,0.0293,0.0313,0.0365,0.0434,0.0485,0.0492,0.0551,0.0549,0.0505,0.044,0.0304,0.0186,0.0071,-0.0082,-0.0071,-0.0039,-0.0056,-0.0212,-0.0279,-0.0341,-0.0387,-0.013,-0.013,-0.013,0,0.0193,0.0233,0.0301,0.0345,0.0373,0.0446,0.0496,0.053,0.0592,0.063,0.0669,0.0624,0.0616,0.0447,0.0241,0.0065,-0.0059,-0.0046,-0.01,-0.0198,-0.0289,-0.0333,-0.0371,-0.0076,-0.0076,-0.0075,-0.0075,0,0.0256,0.0278,0.0327,0.0411,0.0478,0.0557,0.0637,0.07,0.0743,0.0804,0.0875,0.0878,0.071,0.0553,0.0297,0.016,-0.0106,-0.0044,-0.0151,-0.0246,-0.029,-0.0351,-0.01,-0.0072,-0.0072,-0.0072,-0.0072,-0.0073,0.0298,0.034,0.0399,0.0481,0.0558,0.0656,0.0734,0.0828,0.0939,0.1042,0.1041,0.1089,0.0829,0.0494,0.029,-0.0065,-0.0089,-0.018,-0.025,-0.0284,-0.0333,-0.0068,-0.0064,-0.0064,-0.0065,-0.0065,-0.0065,0,0.0341,0.0389,0.0467,0.0561,0.0651,0.0682,0.0818,0.0906,0.1048,0.1168,0.1251,0.118,0.0868,0.0522,0.003,-0.0223,-0.0322,-0.0362,-0.0427,-0.0456,-0.022,-0.0222,-0.0243,-0.0243,-0.0243,-0.0243,-0.0243,-0.0243,0.0367,0.0437,0.0473,0.0617,0.069,0.0816,0.0897,0.1031,0.1154,0.1322,0.1391,0.1413,0.1137,0.0283,-0.0284,-0.0414,-0.0599,-0.0635,-0.0733,-0.0586,-0.0575,-0.0564,-0.0582,-0.0678,-0.0679,-0.0924,-0.0927,-0.0929]}],[{"header":{"parameterUnit":"m.s-1","parameterCategory":2,"la1":30.2991,"la2":30.254,"lo1":-89.0895,"lo2":-89.0444,"dy":0.0017,"dx":0.0017,"nx":28,"ny":28,"refTime":"2025-02-28T03:00:00:Z","depth":"2","parameterNumber":2,"parameterNumberName":"U-component_of_CURRENTS"},"data":[0,0,0,0,0,0,0,0,0,0,0,0,0,0,0,0,0,0,0,0,0,0,0,0,0,0,0,0,0,0,0,0,0,0,0,0,0,0,0,0,0,0,0,0,0,0,0,0,0,0,0,0,0,0,0,0,0,0,0.2167,0.2167,0,0.2156,0.2156,0.2156,0.2117,0.2115,0.2114,0.2113,0.2057,0.2057,0.2056,0,0,0,0,0,0,0,0,0,0,0,0,0,0.2158,0.2159,0.2167,0.2167,0.2166,0.2156,0.2156,0.2156,0.2117,0.2115,0.2114,0.2113,0.2057,0.2057,0.2056,0,0,0,0,0,0,0,0,0,0,0,0,0,0.2158,0.2159,0.2167,0.2144,0.2142,0.2155,0.2156,0.2156,0.2117,0.2115,0.2114,0.2112,0.2058,0.2057,0.2056,0.2084,0,0,0.2054,0.2054,0,0,0,0,0,0,0,0,0.2158,0.2159,0.2148,0.2146,0.2143,0.2134,0.2132,0.2129,0.2117,0.2129,0.2113,0.2111,0.2079,0.2076,0.2081,0.2082,0.2079,0.2054,0.2053,0.2053,0.2053,0,0,0,0,0,0,0,0.2158,0.2159,0.2165,0.2147,0.2145,0.2135,0.2133,0.2131,0.2114,0.2128,0.2124,0.212,0.2077,0.2082,0.2079,0.2078,0.2054,0.2053,0.2053,0.2053,0.2149,0.2152,0,0,0,0,0,0,0.2157,0.2159,0.2165,0.2164,0.2144,0.2136,0.2135,0.214,0.2115,0.2109,0.2121,0.2118,0.2084,0.208,0.2077,0.2104,0.2053,0.2052,0.2052,0.2146,0.215,0.2153,0,0,0,0,0,0,0.2157,0.2158,0.2165,0.2159,0.2159,0.2138,0.2145,0.2141,0.2149,0.211,0.2103,0.2133,0.2083,0.2078,0.2092,0.2101,0.2052,0.2051,0.2142,0.2147,0.2151,0.216,0,0,0,0,0,0,0.2157,0.2159,0.2176,0.2159,0.2159,0.2154,0.2146,0.2142,0.2147,0.2143,0.2118,0.2111,0.2081,0.2093,0.2091,0.2099,0.2051,0.2139,0.2144,0.215,0.2156,0.2165,0.2172,0,0,0,0,0,0.2157,0.2157,0.2178,0.2179,0.218,0.2154,0.2153,0.2134,0.2149,0.214,0.2151,0.2112,0.2128,0.2095,0.2092,0.21,0.2136,0.2143,0.2149,0.2153,0.2163,0.2172,0,0,0,0,0,0,0.2132,0.2153,0.2174,0.2176,0.2168,0.2146,0.215,0.2149,0.2155,0.2165,0.214,0.2134,0.2151,0.2146,0.211,0.2155,0.213,0.2136,0.2134,0.2143,0.2151,0.2174,0.205,0,0,0,0,0,0.2149,0.2182,0.2171,0.2181,0.2183,0.2183,0.2181,0.2167,0.2163,0.2165,0.2161,0.2174,0.2181,0.2176,0.218,0.22,0.22,0.2213,0.2221,0.2227,0.2251,0.2251,0.2259,0.2175,0.2175,0.2175,0,0,0.2134,0.2163,0.2172,0.2184,0.2192,0.2193,0.2178,0.2171,0.2179,0.216,0.2193,0.2197,0.2197,0.2214,0.2222,0.2204,0.2257,0.2236,0.224,0.2261,0.2258,0.2266,0.2273,0.2179,0.2179,0.2178,0,0,0.2126,0.2162,0.2185,0.2198,0.2214,0.2205,0.2208,0.2205,0.2211,0.2233,0.2238,0.2254,0.2266,0.2265,0.2266,0.2331,0.2301,0.2342,0.2384,0.2383,0.2388,0.2393,0.2411,0.2418,0.2339,0.234,0.234,0,0.2135,0.215,0.2177,0.221,0.222,0.2217,0.2221,0.2231,0.2235,0.2251,0.2243,0.2304,0.2288,0.2321,0.2346,0.234,0.2351,0.2331,0.2387,0.2392,0.2397,0.2414,0.2421,0.2341,0.2341,0.234,0.234,0,0.2126,0.2162,0.2174,0.2231,0.2239,0.2239,0.2252,0.2267,0.2283,0.2293,0.2339,0.2345,0.2371,0.2378,0.2377,0.2422,0.2424,0.2391,0.2346,0.2404,0.2421,0.2428,0.2343,0.2342,0.2342,0.2341,0,0,0.2104,0.2163,0.2174,0.2205,0.2253,0.2246,0.2282,0.2292,0.2319,0.2346,0.2385,0.2419,0.2435,0.2446,0.2452,0.2469,0.2502,0.2458,0.2457,0.2449,0.2526,0.244,0.2439,0.2472,0.2474,0.2475,0.2524,0,0.2102,0.2146,0.2177,0.2211,0.2227,0.2261,0.2297,0.232,0.2339,0.2378,0.2409,0.2453,0.2456,0.2478,0.2493,0.2501,0.2522,0.2494,0.2497,0.2499,0.2391,0.2445,0.2273,0.2295,0.253,0.2531,0.2532,0,0.2088,0.2122,0.215,0.2214,0.2226,0.2247,0.2295,0.2321,0.2379,0.2412,0.2462,0.249,0.2547,0.2531,0.2575,0.256,0.2561,0.2566,0.2565,0.249,0.2425,0.2279,0.2298,0.2543,0.2542,0.2542,0.2541,0,0.2047,0.2107,0.2125,0.2151,0.2215,0.2239,0.2267,0.2327,0.2355,0.244,0.2468,0.2539,0.2565,0.2592,0.26,0.2595,0.2636,0.2606,0.254,0.2534,0.2393,0.2372,0.2642,0.2642,0.2642,0.2642,0.2641,0,0.2041,0.2057,0.2107,0.2126,0.2153,0.2215,0.2248,0.2301,0.2368,0.2396,0.2483,0.2515,0.2583,0.2603,0.2618,0.2596,0.2636,0.2572,0.2542,0.2395,0.2374,0.2592,0.2585,0.2643,0.2643,0.2643,0.2642,0,0.2004,0.2039,0.2058,0.2117,0.2139,0.2156,0.2226,0.2247,0.2331,0.2368,0.2404,0.2498,0.2538,0.2584,0.2622,0.2592,0.2597,0.2577,0.2415,0.2365,0.2503,0.2498,0.2525,0.2523,0.2521,0.2519,0.2517,0,0.199,0.1995,0.204,0.2049,0.2078,0.2111,0.214,0.2226,0.2245,0.2338,0.2348,0.2424,0.2452,0.249,0.248,0.2496,0.2547,0.2323,0.2275,0.2524,0.2493,0.249,0.2488,0.2106,0.2101,0.2097,0.2094,0,0.1953,0.1965,0.1987,0.1998,0.2021,0.2027,0.2067,0.2079,0.2162,0.2203,0.2242,0.2281,0.2336,0.2271,0.2292,0.2276,0.2309,0.2242,0.2534,0.2151,0.2128,0.2097,0.2109,0.2059,0.2062,0.2065,0.2067,0.2068,0.1925,0.1911,0.1929,0.1927,0.1948,0.192,0.1902,0.1941,0.1955,0.1982,0.2078,0.2076,0.2115,0.2061,0.2,0.196,0.2124,0.2035,0.2047,0.2063,0.1996,0.1968,0.1859,0.1861,0.1863,0.1865,0.1866,0,0.1863,0.1841,0.185,0.1828,0.1801,0.1839,0.1832,0.1786,0.1762,0.1824,0.1852,0.1716,0.1694,0.1726,0.1621,0.1624,0.1616,0.1551,0.1529,0.1566,0.1598,0.1506,0.1239,0.1237,0.1235,0.1233,0,0,0.1822,0.1779,0.176,0.1672,0.1667,0.1592,0.1565,0.1524,0.1532,0.1491,0.1485,0.163,0.1688,0.1438,0.1416,0.1303,0.1421,0.1255,0.1767,0.1779,0.1808,0.1895,0.1797,0,0,0,0,0]},{"header":{"parameterUnit":"m.s-1","parameterCategory":2,"la1":30.2991,"la2":30.254,"lo1":-89.0895,"lo2":-89.0444,"dy":0.0017,"dx":0.0017,"nx":28,"ny":28,"refTime":"2025-02-28T03:00:00:Z","depth":"2","parameterNumber":3,"parameterNumberName":"V-component_of_CURRENTS"},"data":[0,0,0,0,0,0,0,0,0,0,0,0,0,0,0,0,0,0,0,0,0,0,0,0,0,0,0,0,0,0,0,0,0,0,0,0,0,0,0,0,0,0,0,0,0,0,0,0,0,0,0,0,0,0,0,0,0,0,0.0225,0.0225,0,0.0199,0.0198,0.0198,0.0178,0.0178,0.0178,0.0178,0.0129,0.0127,0.0126,0,0,0,0,0,0,0,0,0,0,0,0,0,0.0217,0.0217,0.0225,0.0225,0.0224,0.0199,0.0198,0.0198,0.0178,0.0178,0.0178,0.0178,0.0129,0.0127,0.0126,0,0,0,0,0,0,0,0,0,0,0,0,0,0.0207,0.0218,0.0225,0.0212,0.0211,0.0199,0.0198,0.0198,0.0178,0.0178,0.0178,0.0178,0.0129,0.0128,0.0126,0.0116,0,0,0.012,0.0119,0,0,0,0,0,0,0,0,0.0208,0.0207,0.0214,0.0213,0.0212,0.0193,0.0177,0.017,0.0178,0.0189,0.0178,0.0178,0.0149,0.0145,0.0139,0.0113,0.0111,0.012,0.0119,0.0118,0.0117,0,0,0,0,0,0,0,0.0209,0.0208,0.0213,0.0214,0.0213,0.0194,0.0193,0.0176,0.0168,0.0188,0.0187,0.0186,0.0148,0.0141,0.0138,0.0111,0.012,0.0118,0.0117,0.0116,0.0054,0.0053,0,0,0,0,0,0,0.0217,0.0209,0.0214,0.0212,0.0211,0.0195,0.0193,0.0198,0.0169,0.0165,0.0186,0.0185,0.0144,0.014,0.0136,0.0129,0.0118,0.0116,0.0115,0.0054,0.0054,0.0053,0,0,0,0,0,0,0.0217,0.0218,0.0215,0.0211,0.0209,0.0196,0.02,0.0197,0.0191,0.0168,0.0163,0.0183,0.0144,0.0138,0.0116,0.0127,0.0115,0.0114,0.0055,0.0054,0.0053,0.0112,0,0,0,0,0,0,0.0217,0.0218,0.0221,0.0212,0.021,0.0219,0.02,0.0197,0.0191,0.019,0.0164,0.0159,0.0143,0.0119,0.0114,0.0124,0.0112,0.0056,0.0054,0.0054,0.0111,0.0113,0.0115,0,0,0,0,0,0.0217,0.0236,0.0221,0.0221,0.0215,0.022,0.0217,0.0205,0.0191,0.0197,0.0168,0.016,0.0109,0.0117,0.0112,0.0121,0.0056,0.0055,0.0054,0.011,0.0113,0.0115,0,0,0,0,0,0,0.0241,0.0235,0.0219,0.0235,0.0228,0.0217,0.0218,0.0207,0.0188,0.018,0.0154,0.0148,0.0134,0.0112,0.0121,0.0096,0.0081,0.0078,0.0125,0.0128,0.013,0.0138,0.0111,0,0,0,0,0,0.0244,0.0245,0.024,0.0246,0.0246,0.0227,0.0224,0.0217,0.0201,0.0193,0.0172,0.0143,0.0124,0.0114,0.0092,0.008,0.0058,0.0079,0.0081,0.0084,0.0084,0.006,0.0061,0.0049,0.0049,0.0049,0,0,0.0252,0.0247,0.0247,0.0249,0.0237,0.025,0.0225,0.0226,0.0232,0.019,0.0182,0.0153,0.0121,0.0109,0.01,0.0093,0.0075,0.0082,0.0085,0.0083,0.0059,0.0061,0.0062,0.0048,0.0048,0.0048,0,0,0.0273,0.0265,0.0274,0.0275,0.0266,0.0262,0.0264,0.0253,0.0242,0.0235,0.02,0.0174,0.015,0.0125,0.0112,0.011,0.0089,0.0102,0.0123,0.0101,0.0103,0.0104,0.0081,0.008,0.0103,0.0103,0.0103,0,0.0278,0.0295,0.0278,0.0292,0.0299,0.0272,0.0293,0.0282,0.0262,0.0253,0.0242,0.0189,0.0161,0.0141,0.0135,0.0119,0.01,0.0122,0.0107,0.0108,0.0108,0.0084,0.0082,0.0106,0.0106,0.0105,0.0105,0,0.0313,0.0324,0.0331,0.0337,0.0344,0.0357,0.0348,0.034,0.0323,0.031,0.0285,0.0239,0.0211,0.0194,0.0166,0.0146,0.013,0.0117,0.0108,0.0113,0.0087,0.0084,0.011,0.0109,0.0108,0.0107,0,0,0.0332,0.035,0.0353,0.0367,0.0371,0.0386,0.0388,0.0389,0.0395,0.036,0.0362,0.0308,0.0276,0.0254,0.021,0.0179,0.0159,0.0147,0.0145,0.014,0.0109,0.0097,0.0092,0.0146,0.0146,0.0146,0.0093,0,0.036,0.0399,0.0402,0.0442,0.0465,0.045,0.046,0.0453,0.0441,0.0434,0.0374,0.0359,0.0303,0.0288,0.0249,0.0183,0.0151,0.0174,0.0092,0.0089,0.0091,0.0088,0.0111,0.0066,0.009,0.0089,0.0088,0,0.04,0.0419,0.0463,0.0497,0.0506,0.0528,0.0543,0.0552,0.0527,0.0514,0.048,0.0436,0.0378,0.0335,0.0231,0.0249,0.0181,0.0127,0.0124,0.009,0.0071,0.0061,0.0058,0.0082,0.0083,0.0083,0.0084,0,0.0432,0.047,0.0506,0.0519,0.0547,0.0562,0.0579,0.0574,0.059,0.0565,0.0572,0.0496,0.0468,0.0372,0.0253,0.0244,0.0142,0.0122,0.0047,0.0046,0.0035,0.0034,0.0051,0.0051,0.0052,0.0052,0.0052,0,0.0472,0.0503,0.0525,0.0549,0.0595,0.0604,0.0651,0.0649,0.0659,0.0685,0.0617,0.0614,0.0475,0.0398,0.0282,0.0157,0.0167,0.0049,0.0031,0.0055,0.0056,0.0045,0.0045,0.005,0.005,0.0051,0.0051,0,0.0503,0.0515,0.0563,0.0598,0.0614,0.065,0.0709,0.0743,0.0742,0.0773,0.0768,0.0705,0.0603,0.0461,0.0309,0.0206,0.0081,0.0033,0.0069,0.0056,-0.001,-0.0007,-0.0053,-0.0054,-0.0055,-0.0055,-0.0056,0,0.0522,0.0547,0.06,0.0633,0.0653,0.0708,0.0748,0.0776,0.0818,0.0828,0.0845,0.0765,0.0715,0.0495,0.0297,0.0105,0.0075,-0.0001,-0.0019,-0.0008,-0.0021,-0.0016,-0.0012,-0.0011,-0.0011,-0.0011,-0.0011,0,0.0556,0.0571,0.0609,0.0674,0.0726,0.0788,0.085,0.0896,0.0926,0.0953,0.0966,0.093,0.0728,0.0538,0.028,0.0151,0.0031,-0.0009,-0.0003,0.0015,0.0028,0.0017,0.002,-0.0012,-0.0012,-0.0012,-0.0012,-0.0012,0.0577,0.0608,0.0656,0.0717,0.0779,0.0851,0.0912,0.0978,0.1045,0.1089,0.1054,0.1009,0.08,0.0472,0.025,0.002,0.0025,-0.0055,-0.0053,-0.0052,-0.0035,-0.0023,-0.007,-0.007,-0.007,-0.007,-0.007,0,0.0596,0.0635,0.0697,0.0769,0.0833,0.0864,0.0967,0.1028,0.1109,0.1145,0.1157,0.0958,0.0751,0.0509,0.0168,-0.0033,-0.0045,-0.0095,-0.0065,-0.0063,-0.0061,-0.0044,-0.0082,-0.0083,-0.0084,-0.0084,0,0,0.0609,0.0664,0.0694,0.0791,0.0847,0.0942,0.1003,0.1095,0.1152,0.1184,0.1164,0.112,0.0824,0.0577,0.0303,0.0108,0.007,0.0072,0.0105,0.0175,0.0179,-0.0015,0.0017,0,0,0,0,0]}],[{"header":{"parameterUnit":"m.s-1","parameterCategory":2,"la1":30.2991,"la2":30.254,"lo1":-89.0895,"lo2":-89.0444,"dy":0.0017,"dx":0.0017,"nx":28,"ny":28,"refTime":"2025-02-28T03:00:00:Z","depth":"4","parameterNumber":2,"parameterNumberName":"U-component_of_CURRENTS"},"data":[0,0,0,0,0,0,0,0,0,0,0,0,0,0,0,0,0,0,0,0,0,0,0,0,0,0,0,0,0,0,0,0,0,0,0,0,0,0,0,0,0,0,0,0,0,0,0,0,0,0,0,0,0,0,0,0,0,0,0.1002,0.1004,0,0.1056,0.1056,0.1056,0.1075,0.1075,0.1076,0.1077,0.1129,0.1129,0.113,0,0,0,0,0,0,0,0,0,0,0,0,0,0.0915,0.0916,0.1002,0.1004,0.1005,0.1056,0.1056,0.1055,0.1074,0.1075,0.1076,0.1077,0.1129,0.1129,0.113,0,0,0,0,0,0,0,0,0,0,0,0,0,0.095,0.0916,0.1002,0.1028,0.1032,0.1056,0.1056,0.1055,0.1074,0.1075,0.1076,0.1077,0.1128,0.1129,0.113,0.1115,0,0,0.1134,0.1134,0,0,0,0,0,0,0,0,0.0948,0.0952,0.1023,0.1027,0.1031,0.1068,0.1045,0.1079,0.1074,0.1047,0.1077,0.1078,0.1114,0.1116,0.111,0.1118,0.112,0.1134,0.1134,0.1135,0.1135,0,0,0,0,0,0,0,0.0945,0.095,0.1013,0.1025,0.103,0.1038,0.1043,0.1051,0.1066,0.105,0.1054,0.1076,0.1115,0.1109,0.1111,0.1121,0.1134,0.1135,0.1135,0.1136,0.116,0.116,0,0,0,0,0,0,0.0958,0.0947,0.1012,0.1016,0.1003,0.104,0.1045,0.1047,0.1066,0.1073,0.1075,0.1076,0.1106,0.111,0.1113,0.1184,0.1135,0.1136,0.1136,0.116,0.116,0.116,0,0,0,0,0,0,0.0955,0.0962,0.101,0.0992,0.1,0.1041,0.1043,0.1048,0.1072,0.1087,0.1092,0.1099,0.1107,0.1112,0.114,0.1183,0.1136,0.1137,0.116,0.116,0.116,0.1269,0,0,0,0,0,0,0.0952,0.096,0.0965,0.0992,0.1002,0.104,0.1043,0.1048,0.1087,0.109,0.1109,0.1113,0.1109,0.1138,0.1141,0.1184,0.1138,0.116,0.116,0.116,0.1266,0.1273,0.1279,0,0,0,0,0,0.0948,0.0962,0.0964,0.0973,0.1007,0.1042,0.1047,0.1073,0.1088,0.1097,0.1112,0.1114,0.114,0.114,0.1143,0.1187,0.116,0.116,0.116,0.1262,0.1271,0.1279,0,0,0,0,0,0,0.0942,0.0967,0.097,0.0994,0.1022,0.105,0.1073,0.1089,0.1105,0.1119,0.1121,0.1126,0.1173,0.1147,0.1147,0.1186,0.1148,0.1148,0.1224,0.1233,0.1239,0.1234,0.1139,0,0,0,0,0,0.0939,0.0952,0.0979,0.1005,0.1017,0.1046,0.1066,0.1088,0.1112,0.1122,0.1138,0.1147,0.1167,0.1176,0.1186,0.1204,0.1195,0.1227,0.1234,0.124,0.1233,0.1267,0.1278,0.116,0.116,0.116,0,0,0.0952,0.0968,0.0978,0.1004,0.1026,0.1047,0.1059,0.1105,0.1131,0.1125,0.1165,0.1185,0.1179,0.1212,0.1227,0.1201,0.1267,0.124,0.1246,0.1235,0.1269,0.1281,0.1291,0.116,0.116,0.116,0,0,0.0977,0.099,0.0999,0.1013,0.1055,0.1076,0.1097,0.1135,0.1157,0.1191,0.1206,0.1248,0.1256,0.1274,0.1279,0.1321,0.1314,0.1321,0.1348,0.1383,0.1394,0.1403,0.1412,0.1422,0.1312,0.1312,0.1312,0,0.0982,0.1,0.1013,0.1021,0.1049,0.1092,0.1116,0.1139,0.1186,0.1213,0.1214,0.1269,0.1285,0.1331,0.1349,0.1344,0.1345,0.133,0.1397,0.1406,0.1414,0.142,0.1429,0.1317,0.1317,0.1316,0.1316,0,0.1001,0.1018,0.1035,0.1052,0.1078,0.1118,0.1152,0.1192,0.1232,0.1259,0.1325,0.1343,0.137,0.1392,0.1387,0.1452,0.143,0.142,0.1388,0.1433,0.1436,0.1443,0.1325,0.1323,0.1321,0.132,0,0,0.1004,0.1037,0.1043,0.1058,0.1101,0.113,0.118,0.1238,0.1285,0.1325,0.1377,0.1429,0.145,0.1453,0.1468,0.1499,0.1577,0.1483,0.1483,0.1512,0.1639,0.1534,0.1531,0.1587,0.1589,0.159,0.1622,0,0.1017,0.1038,0.1057,0.1103,0.1124,0.117,0.121,0.1267,0.1322,0.1379,0.142,0.1476,0.1467,0.1503,0.1532,0.1574,0.1599,0.1567,0.157,0.157,0.1489,0.1537,0.1596,0.1627,0.1629,0.163,0.1631,0,0.102,0.1042,0.1078,0.1132,0.1146,0.1184,0.1273,0.1312,0.1393,0.1432,0.1486,0.1518,0.1583,0.1566,0.1634,0.1615,0.1629,0.1648,0.1649,0.1514,0.1478,0.1567,0.1644,0.1643,0.1642,0.1641,0.164,0,0.101,0.1056,0.1096,0.1109,0.1172,0.1215,0.1262,0.1341,0.1385,0.1479,0.1524,0.1583,0.1632,0.1657,0.1687,0.1674,0.1748,0.1733,0.1643,0.1635,0.1675,0.1664,0.1774,0.1774,0.1774,0.1774,0.1774,0,0.1002,0.1033,0.1102,0.1116,0.118,0.1222,0.1299,0.1351,0.1432,0.1485,0.1552,0.1596,0.1663,0.1704,0.1709,0.1691,0.1762,0.1651,0.1641,0.1717,0.1711,0.1681,0.1669,0.1775,0.1775,0.1775,0.1775,0,0.0971,0.1012,0.1059,0.114,0.1171,0.1216,0.1306,0.1353,0.1439,0.1511,0.1545,0.1634,0.1686,0.1722,0.178,0.1718,0.1719,0.1694,0.1767,0.1761,0.1574,0.1568,0.1591,0.1588,0.1585,0.1583,0.1581,0,0.0947,0.0976,0.1066,0.1098,0.114,0.1214,0.1259,0.1348,0.1393,0.1516,0.1538,0.1632,0.1675,0.1657,0.1705,0.1694,0.1675,0.1653,0.1612,0.1569,0.1558,0.1556,0.1554,0.1576,0.1575,0.1575,0.1574,0,0.0916,0.0963,0.0993,0.1062,0.112,0.1176,0.1249,0.1269,0.1368,0.1463,0.1501,0.1524,0.1576,0.1596,0.1602,0.1592,0.1655,0.1623,0.1628,0.1589,0.1551,0.1543,0.1544,0.1564,0.1566,0.1566,0.1567,0,0.0891,0.0904,0.0956,0.101,0.1075,0.1112,0.1158,0.1207,0.1256,0.1383,0.1395,0.1481,0.1569,0.1544,0.1549,0.1531,0.1503,0.1443,0.1457,0.1468,0.1411,0.1344,0.1288,0,0,0,0,0,0.0865,0.0867,0.0903,0.0944,0.1008,0.1053,0.1138,0.1184,0.1281,0.1274,0.1328,0.1366,0.1381,0.1425,0.1381,0.1488,0.1505,0.1428,0.1442,0.1509,0.1521,0.1464,0,0,0,0,0,0,0.0842,0.0864,0.0871,0.0885,0.0907,0.0967,0.1018,0.1086,0.1085,0.1188,0.1205,0.1284,0.132,0.1396,0.1357,0.1368,0.1347,0.1483,0.1479,0.1503,0.1513,0.1522,0.1468,0,0,0,0,0]},{"header":{"parameterUnit":"m.s-1","parameterCategory":2,"la1":30.2991,"la2":30.254,"lo1":-89.0895,"lo2":-89.0444,"dy":0.0017,"dx":0.0017,"nx":28,"ny":28,"refTime":"2025-02-28T03:00:00:Z","depth":"4","parameterNumber":3,"parameterNumberName":"V-component_of_CURRENTS"},"data":[0,0,0,0,0,0,0,0,0,0,0,0,0,0,0,0,0,0,0,0,0,0,0,0,0,0,0,0,0,0,0,0,0,0,0,0,0,0,0,0,0,0,0,0,0,0,0,0,0,0,0,0,0,0,0,0,0,0,0.0305,0.0305,0,0.0285,0.0285,0.0284,0.0276,0.0276,0.0276,0.0276,0.0282,0.0282,0.0282,0,0,0,0,0,0,0,0,0,0,0,0,0,0.0317,0.0317,0.0305,0.0305,0.0305,0.0285,0.0285,0.0284,0.0276,0.0276,0.0276,0.0276,0.0282,0.0282,0.0282,0,0,0,0,0,0,0,0,0,0,0,0,0,0.0306,0.0317,0.0305,0.0298,0.0297,0.0285,0.0285,0.0284,0.0276,0.0276,0.0276,0.0276,0.0282,0.0282,0.0282,0.0282,0,0,0.0283,0.0283,0,0,0,0,0,0,0,0,0.0307,0.0306,0.0299,0.0298,0.0297,0.0283,0.0291,0.0285,0.0276,0.0284,0.0276,0.0276,0.0285,0.0285,0.028,0.0282,0.0283,0.0283,0.0283,0.0283,0.0283,0,0,0,0,0,0,0,0.0308,0.0306,0.0297,0.0299,0.0298,0.0289,0.0288,0.029,0.0285,0.0283,0.0283,0.028,0.0284,0.028,0.0281,0.0283,0.0283,0.0283,0.0283,0.0283,0.0288,0.0288,0,0,0,0,0,0,0.0311,0.0307,0.0298,0.0296,0.0302,0.0289,0.0288,0.0288,0.0284,0.0283,0.028,0.028,0.028,0.028,0.0281,0.0289,0.0283,0.0283,0.0283,0.0288,0.0288,0.0288,0,0,0,0,0,0,0.0311,0.031,0.0298,0.0301,0.0299,0.0289,0.0289,0.0287,0.0288,0.0282,0.0281,0.0283,0.028,0.028,0.0284,0.0289,0.0283,0.0283,0.0288,0.0288,0.0288,0.03,0,0,0,0,0,0,0.0312,0.0311,0.032,0.0302,0.0299,0.0293,0.0289,0.0287,0.0286,0.0286,0.0284,0.0284,0.028,0.0284,0.0284,0.0289,0.0284,0.0288,0.0288,0.0288,0.03,0.0301,0.0302,0,0,0,0,0,0.0312,0.032,0.032,0.032,0.0309,0.0293,0.0291,0.0284,0.0286,0.0285,0.0285,0.0285,0.0284,0.0284,0.0284,0.029,0.0288,0.0288,0.0288,0.03,0.0301,0.0302,0,0,0,0,0,0,0.0324,0.0319,0.0319,0.0324,0.0312,0.0292,0.0296,0.0288,0.0287,0.0291,0.0286,0.0286,0.0288,0.0288,0.0288,0.029,0.0286,0.0286,0.0294,0.0295,0.0296,0.0297,0.0284,0,0,0,0,0,0.0333,0.0341,0.0326,0.033,0.0328,0.0314,0.031,0.0301,0.0294,0.0293,0.0293,0.0293,0.0288,0.0291,0.0287,0.0293,0.0271,0.0296,0.0297,0.0298,0.0299,0.0258,0.0255,0.0289,0.0289,0.0289,0,0,0.0335,0.0336,0.0339,0.0334,0.0327,0.0327,0.0312,0.0305,0.0305,0.0295,0.0304,0.0295,0.0288,0.029,0.0291,0.0293,0.0277,0.0298,0.0299,0.0299,0.0258,0.0255,0.0252,0.0289,0.0289,0.0289,0,0,0.0341,0.0348,0.0356,0.0354,0.0348,0.0339,0.0339,0.0325,0.032,0.0323,0.0311,0.0302,0.0311,0.0296,0.0292,0.0296,0.0278,0.0301,0.0312,0.0273,0.027,0.0267,0.0234,0.0228,0.0307,0.0307,0.0307,0,0.035,0.0356,0.0353,0.0362,0.0366,0.0348,0.0353,0.0344,0.0332,0.0329,0.033,0.0316,0.031,0.0297,0.0299,0.0297,0.0276,0.031,0.0274,0.027,0.0267,0.0234,0.0227,0.0307,0.0307,0.0307,0.0307,0,0.0355,0.0369,0.0373,0.0384,0.0387,0.0387,0.0377,0.0373,0.0371,0.0361,0.0349,0.033,0.0322,0.0317,0.0314,0.0289,0.0281,0.0274,0.027,0.0264,0.023,0.0222,0.0308,0.0308,0.0308,0.0308,0,0,0.0358,0.0376,0.038,0.0395,0.0402,0.0402,0.0404,0.0396,0.0397,0.0381,0.0376,0.0357,0.0343,0.0336,0.0318,0.0288,0.0245,0.0279,0.0276,0.0245,0.0162,0.0164,0.0156,0.0232,0.0231,0.023,0.0148,0,0.0366,0.039,0.0396,0.0421,0.0433,0.0431,0.0435,0.0428,0.042,0.041,0.0375,0.0367,0.0351,0.0346,0.031,0.0264,0.0226,0.0268,0.0175,0.0172,0.0172,0.0147,0.0226,0.0142,0.0141,0.0139,0.0138,0,0.0374,0.039,0.0417,0.0445,0.0451,0.0466,0.0476,0.0475,0.0453,0.0446,0.0422,0.0397,0.0353,0.0338,0.0245,0.0275,0.0221,0.0179,0.0174,0.0166,0.0159,0.015,0.0124,0.0125,0.0127,0.0127,0.0128,0,0.0381,0.041,0.0436,0.0447,0.0469,0.0484,0.0495,0.049,0.0497,0.0468,0.0469,0.0408,0.0385,0.0305,0.0228,0.0235,0.0119,0.0115,0.0058,0.0057,0.0076,0.008,0.0034,0.0034,0.0035,0.0035,0.0035,0,0.0392,0.0413,0.0446,0.0461,0.0494,0.0506,0.0535,0.053,0.053,0.054,0.0492,0.0479,0.0377,0.0305,0.0224,0.0121,0.0112,0.0051,0.0032,0.0084,0.009,0.007,0.0076,0.0032,0.0032,0.0033,0.0034,0,0.0395,0.0414,0.0447,0.0482,0.0501,0.0525,0.0576,0.0591,0.0587,0.0595,0.0589,0.0528,0.0438,0.0328,0.0195,0.0127,0.0021,-0.0017,0.0048,0.0035,-0.0015,-0.0008,-0.0091,-0.0092,-0.0093,-0.0093,-0.0093,0,0.0397,0.0414,0.0468,0.0497,0.0519,0.0564,0.0595,0.0616,0.0636,0.0627,0.0627,0.0551,0.0496,0.0309,0.0192,0.0021,-0.0,-0.0061,-0.0043,-0.002,-0.003,-0.0022,-0.0015,-0.0094,-0.0095,-0.0095,-0.0095,0,0.0397,0.042,0.0447,0.0508,0.0555,0.0606,0.0654,0.0673,0.0689,0.069,0.0656,0.0564,0.0457,0.0314,0.018,0.006,-0.0024,-0.0068,-0.0067,-0.0051,-0.0025,-0.0033,-0.0024,-0.0097,-0.0097,-0.0097,-0.0096,0,0.0398,0.0418,0.0461,0.0515,0.0573,0.0626,0.0655,0.0683,0.0702,0.0695,0.0683,0.0573,0.0512,0.0334,0.0212,0.0092,0.0063,0.0022,0.0018,0.0018,0.0077,0.0128,0.0078,0,0,0,0,0,0.0396,0.042,0.0468,0.0524,0.0583,0.0623,0.0682,0.0706,0.0726,0.0708,0.0698,0.0602,0.0427,0.0352,0.0232,0.0192,0.0035,0.0046,-0.0017,-0.0109,-0.0106,-0.0056,0,0,0,0,0,0,0.0392,0.0433,0.0459,0.0522,0.0566,0.0632,0.0673,0.0693,0.0684,0.0688,0.0599,0.0565,0.0395,0.0494,0.0227,0.0191,0.0134,-0.0031,-0.0034,-0.011,-0.0108,-0.0106,-0.0053,0,0,0,0,0]}]]